Location: Gaast
(52.9002°N, 5.8891°E)
Time: 02:48:42
(UTC+00:00)

Cosmos 2263 Rocket - Pass Details

Date: 18 November 2025
Orbit: 822 x 848 km, 71.0° (Epoch: 15 December)

Event Time Altitude Azimuth Distance (km) Brightness Sun altitude
Rises 16:09:14 0° 270° (W) 3,362 6.7 -5.0°
Reaches altitude 10° 16:12:25 10° 288° (WNW) 2,435 5.4 -5.5°
Maximum altitude 16:16:17 19° 332° (NNW) 1,897 4.1 -6.0°
Drops below altitude 10° 16:20:11 10° 17° (NNE) 2,451 4.2 -6.5°
Enters shadow 16:22:42 - 32° (NNE) 3,165 4.7 -6.9°
